Location: Feigenhofen
(48.4939°N, 10.7793°E)
Time: 22:40:21
(UTC+00:00)

Cosmos 2084 Rocket - Pass Details

Date: 26 May 2022
Orbit: 497 x 678 km, 62.8° (Epoch: 24 June)

Event Time Altitude Azimuth Distance (km) Brightness Sun altitude
Exits shadow 01:49:07 16° 246° (WSW) 1,371 4.8 -12.3°
Maximum altitude 01:51:56 48° 318° (NW) 658 3.8 -12.0°
Drops below altitude 10° 01:55:37 10° 34° (NE) 1,709 7.4 -11.6°
Sets 01:57:51 0° 40° (NE) 2,602 9.0 -11.4°
